| time (UTC) | temp C | wind direction | speed KPH | gust KPH | rain 1hr cm | rain 24hr cm | rain mn cm | humidity % | barometer mb |
| 20260504211041 | 14 | 355 | 12.9 | 32.2 | 0.08 | 0.08 | 0.08 | 53 | 1010.1 |
| 20260504210541 | 14 | 14 | 11.3 | 32.2 | 0.08 | 0.08 | 0.08 | 52 | 1010.2 |
| 20260504210048 | 15 | 26 | 11.3 | 29.0 | 0.08 | 0.08 | 0.08 | 54 | 1010.1 |
| 20260504205541 | 14 | 34 | 11.3 | 40.2 | 0.08 | 0.08 | 0.08 | 55 | 1010.2 |
| 20260504205040 | 13 | 327 | 14.5 | 40.2 | 0.08 | 0.08 | 0.08 | 57 | 1010.2 |
| 20260504204601 | 12 | 34 | 9.7 | 45.1 | 0.08 | 0.08 | 0.08 | 55 | 1009.9 |
| 20260504204040 | 14 | 71 | 16.1 | 45.1 | 0.08 | 0.08 | 0.08 | 50 | 1010.3 |
| 20260504203540 | 17 | 344 | 24.1 | 37.0 | 0.03 | 0.03 | 0.03 | 36 | 1009.7 |
| 20260504203046 | 20 | 47 | 6.4 | 19.3 | 0.00 | 0.00 | 0.00 | 25 | 1010.0 |
| 20260504202540 | 20 | 336 | 6.4 | 14.5 | 0.00 | 0.00 | 0.00 | 24 | 1009.3 |
| 20260504202044 | 20 | 318 | 6.4 | 16.1 | 0.00 | 0.00 | 0.00 | 24 | 1009.2 |
| 20260504201549 | 20 | 252 | 8.0 | 24.1 | 0.00 | 0.00 | 0.00 | 26 | 1009.2 |
| 20260504201041 | 20 | 275 | 8.0 | 24.1 | 0.00 | 0.00 | 0.00 | 26 | 1009.2 |
| 20260504200544 | 20 | 208 | 11.3 | 22.5 | 0.00 | 0.00 | 0.00 | 25 | 1009.3 |
| 20260504195540 | 20 | 215 | 8.0 | 27.4 | 0.00 | 0.00 | 0.00 | 24 | 1009.3 |
| 20260504195041 | 20 | 246 | 8.0 | 29.0 | 0.00 | 0.00 | 0.00 | 24 | 1009.2 |
| 20260504194546 | 20 | 272 | 12.9 | 29.0 | 0.00 | 0.00 | 0.00 | 24 | 1009.4 |
| 20260504194041 | 20 | 216 | 14.5 | 29.0 | 0.00 | 0.00 | 0.00 | 20 | 1009.3 |
| 20260504193541 | 21 | 211 | 11.3 | 29.0 | 0.00 | 0.00 | 0.00 | 20 | 1009.2 |
| 20260504193046 | 21 | 194 | 4.8 | 25.7 | 0.00 | 0.00 | 0.00 | 20 | 1009.2 |
| 20260504192540 | 21 | 269 | 9.7 | 25.7 | 0.00 | 0.00 | 0.00 | 20 | 1009.2 |
| 20260504192041 | 21 | 229 | 1.6 | 12.9 | 0.00 | 0.00 | 0.00 | 22 | 1009.1 |
| 20260504191549 | 20 | 235 | 1.6 | 17.7 | 0.00 | 0.00 | 0.00 | 20 | 1009.1 |
| 20260504191040 | 20 | 200 | 3.2 | 20.9 | 0.00 | 0.00 | 0.00 | 20 | 1009.2 |
| 20260504190541 | 20 | 277 | 4.8 | 20.9 | 0.00 | 0.00 | 0.00 | 21 | 1009.2 |
| 20260504190049 | 21 | 313 | 4.8 | 19.3 | 0.00 | 0.00 | 0.00 | 20 | 1009.2 |
| 20260504185541 | 20 | 331 | 8.0 | 22.5 | 0.00 | 0.00 | 0.00 | 20 | 1009.3 |
| 20260504185041 | 21 | 355 | 9.7 | 22.5 | 0.00 | 0.00 | 0.00 | 20 | 1009.2 |
| 20260504184555 | 21 | 336 | 4.8 | 19.3 | 0.00 | 0.00 | 0.00 | 20 | 1009.3 |
| 20260504184041 | 21 | 355 | 3.2 | 19.3 | 0.00 | 0.00 | 0.00 | 21 | 1009.4 |
| 20260504183541 | 21 | 347 | 6.4 | 20.9 | 0.00 | 0.00 | 0.00 | 22 | 1009.5 |
| 20260504183049 | 20 | 317 | 6.4 | 20.9 | 0.00 | 0.00 | 0.00 | 21 | 1009.6 |
| 20260504182540 | 20 | 303 | 8.0 | 17.7 | 0.00 | 0.00 | 0.00 | 22 | 1009.8 |
| 20260504182040 | 20 | 226 | 6.4 | 17.7 | 0.00 | 0.00 | 0.00 | 23 | 1009.8 |
| 20260504181553 | 20 | 277 | 6.4 | 25.7 | 0.00 | 0.00 | 0.00 | 23 | 1009.9 |
| 20260504181041 | 20 | 268 | 4.8 | 25.7 | 0.00 | 0.00 | 0.00 | 23 | 1010.1 |
| 20260504180544 | 20 | 221 | 11.3 | 22.5 | 0.00 | 0.00 | 0.00 | 22 | 1010.2 |
| 20260504180044 | 20 | 253 | 6.4 | 19.3 | 0.00 | 0.00 | 0.00 | 24 | 1010.4 |
| 20260504175540 | 20 | 254 | 4.8 | 20.9 | 0.00 | 0.00 | 0.00 | 24 | 1010.4 |
| 20260504175043 | 20 | 270 | 11.3 | 25.7 | 0.00 | 0.00 | 0.00 | 25 | 1010.5 |
| 20260504174549 | 20 | 312 | 11.3 | 25.7 | 0.00 | 0.00 | 0.00 | 25 | 1010.6 |
| 20260504174040 | 19 | 168 | 9.7 | 24.1 | 0.00 | 0.00 | 0.00 | 26 | 1010.7 |
| 20260504173539 | 18 | 326 | 12.9 | 24.1 | 0.00 | 0.00 | 0.00 | 27 | 1010.9 |
| 20260504173048 | 18 | 216 | 9.7 | 22.5 | 0.00 | 0.00 | 0.00 | 28 | 1010.8 |
| 20260504172540 | 17 | 309 | 9.7 | 20.9 | 0.00 | 0.00 | 0.00 | 28 | 1011.0 |
| 20260504172041 | 17 | 205 | 8.0 | 20.9 | 0.00 | 0.00 | 0.00 | 28 | 1011.1 |
| 20260504171547 | 17 | 267 | 9.7 | 22.5 | 0.00 | 0.00 | 0.00 | 28 | 1011.1 |
| 20260504171041 | 17 | 309 | 9.7 | 22.5 | 0.00 | 0.00 | 0.00 | 28 | 1011.1 |
| 20260504170541 | 16 | 267 | 8.0 | 22.5 | 0.00 | 0.00 | 0.00 | 28 | 1011.2 |
| 20260504151042 | 16 | 286 | 6.4 | 16.1 | 0.00 | 0.00 | 0.00 | 28 | 1011.3 |
| 20260504150540 | 16 | 196 | 6.4 | 16.1 | 0.00 | 0.00 | 0.00 | 27 | 1011.3 |
| 20260504141040 | 15 | 0 | 0.0 | 8.0 | 0.00 | 0.00 | 0.00 | 26 | 1011.3 |
| 20260504140543 | 14 | 242 | 3.2 | 8.0 | 0.00 | 0.00 | 0.00 | 26 | 1011.3 |
| 20260504130544 | 11 | 288 | 11.3 | 19.3 | 0.00 | 0.00 | 0.00 | 28 | 1011.2 |
| 20260504110544 | 8 | 318 | 3.2 | 8.0 | 0.00 | 0.00 | 0.00 | 33 | 1010.9 |
| 20260504100543 | 8 | 347 | 1.6 | 12.9 | 0.00 | 0.00 | 0.00 | 33 | 1011.1 |
| 20260504081552 | 8 | 275 | 6.4 | 16.1 | 0.00 | 0.00 | 0.00 | 33 | 1011.9 |
| 20260504081043 | 9 | 297 | 6.4 | 14.5 | 0.00 | 0.00 | 0.00 | 32 | 1012.1 |
| 20260504080543 | 9 | 279 | 4.8 | 12.9 | 0.00 | 0.00 | 0.00 | 32 | 1012.2 |
| 20260504050543 | 13 | 267 | 11.3 | 19.3 | 0.00 | 0.00 | 0.00 | 27 | 1012.8 |
| 20260504045542 | 13 | 276 | 11.3 | 17.7 | 0.00 | 0.00 | 0.00 | 26 | 1012.7 |
| 20260504045043 | 14 | 331 | 9.7 | 16.1 | 0.00 | 0.00 | 0.00 | 27 | 1012.7 |
| 20260504044554 | 14 | 291 | 11.3 | 16.1 | 0.00 | 0.00 | 0.00 | 26 | 1012.7 |
| 20260504044043 | 14 | 300 | 8.0 | 17.7 | 0.00 | 0.00 | 0.00 | 26 | 1012.7 |
| 20260504043544 | 14 | 290 | 9.7 | 19.3 | 0.00 | 0.00 | 0.00 | 27 | 1012.7 |
| 20260504043057 | 14 | 297 | 6.4 | 19.3 | 0.00 | 0.00 | 0.00 | 27 | 1012.8 |
| 20260504042544 | 15 | 279 | 9.7 | 19.3 | 0.00 | 0.00 | 0.00 | 26 | 1012.8 |
| 20260504042042 | 15 | 263 | 8.0 | 17.7 | 0.00 | 0.00 | 0.00 | 26 | 1012.9 |
| 20260504041552 | 15 | 294 | 8.0 | 17.7 | 0.00 | 0.00 | 0.00 | 26 | 1012.9 |
| 20260504041042 | 16 | 286 | 8.0 | 24.1 | 0.00 | 0.00 | 0.00 | 24 | 1012.9 |
| 20260504040542 | 16 | 302 | 9.7 | 24.1 | 0.00 | 0.00 | 0.00 | 24 | 1013.0 |
| 20260504040055 | 16 | 285 | 8.0 | 29.0 | 0.00 | 0.00 | 0.00 | 24 | 1013.1 |
| 20260504035543 | 16 | 311 | 9.7 | 29.0 | 0.00 | 0.00 | 0.00 | 24 | 1013.1 |
| 20260504035042 | 16 | 286 | 12.9 | 29.0 | 0.00 | 0.00 | 0.00 | 24 | 1013.2 |
| 20260504034552 | 16 | 288 | 11.3 | 22.5 | 0.00 | 0.00 | 0.00 | 24 | 1013.2 |
| 20260504034042 | 16 | 263 | 11.3 | 22.5 | 0.00 | 0.00 | 0.00 | 25 | 1013.3 |
| 20260504033545 | 16 | 275 | 12.9 | 22.5 | 0.00 | 0.00 | 0.00 | 25 | 1013.3 |
| 20260504033051 | 16 | 269 | 8.0 | 19.3 | 0.00 | 0.00 | 0.00 | 25 | 1013.2 |
| 20260504032540 | 16 | 273 | 8.0 | 22.5 | 0.00 | 0.00 | 0.00 | 25 | 1013.2 |
| 20260504032046 | 16 | 245 | 9.7 | 22.5 | 0.00 | 0.00 | 0.00 | 24 | 1013.2 |
| 20260504031553 | 16 | 298 | 9.7 | 22.5 | 0.00 | 0.00 | 0.00 | 25 | 1013.2 |
| 20260504031042 | 16 | 268 | 11.3 | 20.9 | 0.00 | 0.00 | 0.00 | 25 | 1013.2 |
| 20260504030542 | 16 | 254 | 9.7 | 20.9 | 0.00 | 0.00 | 0.00 | 25 | 1013.2 |
| 20260504030050 | 17 | 292 | 9.7 | 25.7 | 0.00 | 0.00 | 0.00 | 25 | 1013.2 |
| 20260504025539 | 17 | 258 | 11.3 | 25.7 | 0.00 | 0.00 | 0.00 | 24 | 1013.2 |
| 20260504025044 | 17 | 262 | 9.7 | 20.9 | 0.00 | 0.00 | 0.00 | 24 | 1013.1 |
| 20260504024556 | 17 | 267 | 8.0 | 19.3 | 0.00 | 0.00 | 0.00 | 24 | 1013.1 |
| 20260504024044 | 17 | 262 | 6.4 | 22.5 | 0.00 | 0.00 | 0.00 | 23 | 1013.1 |
| 20260504023542 | 17 | 235 | 8.0 | 22.5 | 0.00 | 0.00 | 0.00 | 23 | 1013.1 |
| 20260504023052 | 17 | 217 | 6.4 | 16.1 | 0.00 | 0.00 | 0.00 | 23 | 1013.1 |
| 20260504022541 | 17 | 236 | 4.8 | 12.9 | 0.00 | 0.00 | 0.00 | 23 | 1013.1 |
| 20260504022040 | 17 | 265 | 3.2 | 12.9 | 0.00 | 0.00 | 0.00 | 23 | 1013.1 |
| 20260504021549 | 17 | 298 | 4.8 | 12.9 | 0.00 | 0.00 | 0.00 | 23 | 1013.1 |
| 20260504021042 | 17 | 229 | 3.2 | 11.3 | 0.00 | 0.00 | 0.00 | 23 | 1013.0 |
| 20260504020543 | 17 | 259 | 4.8 | 11.3 | 0.00 | 0.00 | 0.00 | 22 | 1013.0 |
| 20260504020127 | 17 | 236 | 1.6 | 14.5 | 0.00 | 0.00 | 0.00 | 22 | 1012.9 |
| 20260504015541 | 17 | 0 | 1.6 | 14.5 | 0.00 | 0.00 | 0.00 | 21 | 1012.9 |
| 20260504015044 | 17 | 279 | 1.6 | 14.5 | 0.00 | 0.00 | 0.00 | 21 | 1012.7 |
| 20260504014605 | 17 | 0 | 0.0 | 4.8 | 0.00 | 0.00 | 0.00 | 21 | 1012.7 |
| 20260504014041 | 18 | 0 | 0.0 | 12.9 | 0.00 | 0.00 | 0.00 | 21 | 1012.7 |
| 20260504013541 | 18 | 294 | 0.0 | 12.9 | 0.00 | 0.00 | 0.00 | 21 | 1012.6 |
| 20260504013110 | 18 | 325 | 0.0 | 6.4 | 0.00 | 0.00 | 0.00 | 20 | 1012.5 |
| 20260504012541 | 18 | 262 | 0.0 | 12.9 | 0.00 | 0.00 | 0.00 | 20 | 1012.4 |
| 20260504012041 | 18 | 287 | 1.6 | 12.9 | 0.00 | 0.00 | 0.00 | 21 | 1012.4 |
| 20260504011551 | 18 | 286 | 4.8 | 16.1 | 0.00 | 0.00 | 0.00 | 21 | 1012.4 |
| 20260504011040 | 18 | 262 | 6.4 | 16.1 | 0.00 | 0.00 | 0.00 | 21 | 1012.4 |
| 20260504010540 | 18 | 267 | 3.2 | 14.5 | 0.00 | 0.00 | 0.00 | 21 | 1012.5 |
| 20260504010051 | 18 | 277 | 4.8 | 22.5 | 0.00 | 0.00 | 0.00 | 21 | 1012.6 |
| 20260504005541 | 18 | 310 | 6.4 | 29.0 | 0.00 | 0.00 | 0.00 | 21 | 1012.5 |
| 20260504005041 | 18 | 298 | 9.7 | 29.0 | 0.00 | 0.00 | 0.00 | 21 | 1012.7 |
| 20260504004618 | 18 | 257 | 11.3 | 27.4 | 0.00 | 0.00 | 0.00 | 21 | 1012.9 |
| 20260504004041 | 19 | 288 | 9.7 | 27.4 | 0.00 | 0.00 | 0.00 | 21 | 1013.1 |
| 20260504003541 | 19 | 274 | 8.0 | 27.4 | 0.00 | 0.00 | 0.00 | 21 | 1013.1 |
| 20260504003054 | 19 | 315 | 9.7 | 25.7 | 0.00 | 0.00 | 0.00 | 21 | 1013.1 |
| 20260504002541 | 19 | 294 | 8.0 | 25.7 | 0.00 | 0.00 | 0.00 | 21 | 1013.4 |
| 20260504002041 | 19 | 286 | 11.3 | 25.7 | 0.00 | 0.00 | 0.00 | 20 | 1013.1 |
| 20260504001618 | 19 | 307 | 6.4 | 16.1 | 0.00 | 0.00 | 0.00 | 20 | 1013.5 |
| 20260504001042 | 19 | 0 | 1.6 | 12.9 | 0.00 | 0.00 | 0.00 | 21 | 1013.3 |
| 20260504000540 | 19 | 229 | 3.2 | 35.4 | 0.00 | 0.00 | 0.00 | 21 | 1013.4 |
| 20260503235541 | 19 | 273 | 8.0 | 22.5 | 0.00 | 0.00 | 0.00 | 20 | 1013.5 |
| 20260503235041 | 19 | 309 | 1.6 | 17.7 | 0.00 | 0.00 | 0.00 | 21 | 1013.5 |
| 20260503234551 | 19 | 225 | 1.6 | 20.9 | 0.00 | 0.00 | 0.00 | 21 | 1013.5 |
| 20260503234041 | 19 | 340 | 6.4 | 20.9 | 0.00 | 0.00 | 0.00 | 21 | 1013.7 |
| 20260503233540 | 19 | 334 | 3.2 | 24.1 | 0.00 | 0.00 | 0.00 | 22 | 1013.7 |
| 20260503233055 | 19 | 0 | 9.7 | 24.1 | 0.00 | 0.00 | 0.00 | 21 | 1013.7 |
| 20260503232542 | 19 | 321 | 6.4 | 19.3 | 0.00 | 0.00 | 0.00 | 20 | 1013.8 |
| 20260503232042 | 20 | 344 | 9.7 | 19.3 | 0.00 | 0.00 | 0.00 | 20 | 1013.5 |
| 20260503231552 | 20 | 319 | 8.0 | 20.9 | 0.00 | 0.00 | 0.00 | 20 | 1013.5 |
| 20260503231043 | 20 | 300 | 9.7 | 20.9 | 0.00 | 0.00 | 0.00 | 20 | 1013.3 |
| 20260503230542 | 20 | 331 | 6.4 | 16.1 | 0.00 | 0.00 | 0.00 | 20 | 1013.3 |
| 20260503230111 | 20 | 344 | 4.8 | 20.9 | 0.00 | 0.00 | 0.00 | 19 | 1013.4 |
| 20260503225542 | 21 | 335 | 9.7 | 22.5 | 0.00 | 0.00 | 0.00 | 19 | 1013.5 |
| 20260503225042 | 20 | 339 | 9.7 | 22.5 | 0.00 | 0.00 | 0.00 | 19 | 1013.4 |
| 20260503224553 | 21 | 330 | 6.4 | 19.3 | 0.00 | 0.00 | 0.00 | 19 | 1013.5 |
| 20260503224042 | 20 | 360 | 11.3 | 29.0 | 0.00 | 0.00 | 0.00 | 21 | 1013.3 |
| 20260503223544 | 20 | 15 | 6.4 | 30.6 | 0.00 | 0.00 | 0.00 | 20 | 1013.3 |
| 20260503223056 | 20 | 350 | 14.5 | 37.0 | 0.00 | 0.00 | 0.00 | 19 | 1013.4 |
| 20260503222542 | 20 | 325 | 14.5 | 41.8 | 0.00 | 0.00 | 0.00 | 20 | 1013.3 |
| 20260503222042 | 20 | 339 | 20.9 | 41.8 | 0.00 | 0.00 | 0.00 | 19 | 1013.4 |
| 20260503221545 | 20 | 334 | 14.5 | 33.8 | 0.00 | 0.00 | 0.00 | 20 | 1013.5 |
| 20260503221043 | 20 | 294 | 14.5 | 33.8 | 0.00 | 0.00 | 0.00 | 19 | 1013.4 |
| 20260503220542 | 21 | 333 | 9.7 | 25.7 | 0.00 | 0.00 | 0.00 | 18 | 1013.4 |
| 20260503220054 | 21 | 342 | 14.5 | 22.5 | 0.00 | 0.00 | 0.00 | 17 | 1013.6 |
| 20260503215542 | 21 | 345 | 6.4 | 14.5 | 0.00 | 0.00 | 0.00 | 17 | 1013.5 |
| 20260503215039 | 21 | 0 | 4.8 | 19.3 | 0.00 | 0.00 | 0.00 | 17 | 1013.6 |
| 20260503214557 | 20 | 295 | 4.8 | 29.0 | 0.00 | 0.00 | 0.00 | 17 | 1013.8 |
| 20260503214042 | 20 | 311 | 12.9 | 29.0 | 0.00 | 0.00 | 0.00 | 16 | 1014.0 |
| 20260503213544 | 21 | 213 | 8.0 | 25.7 | 0.00 | 0.00 | 0.00 | 16 | 1014.2 |
| 20260503213052 | 21 | 271 | 9.7 | 22.5 | 0.00 | 0.00 | 0.00 | 16 | 1014.2 |
| 20260503212539 | 21 | 290 | 8.0 | 22.5 | 0.00 | 0.00 | 0.00 | 15 | 1014.1 |
| 20260503212041 | 21 | 263 | 4.8 | 17.7 | 0.00 | 0.00 | 0.00 | 15 | 1014.0 |
| 20260503211551 | 21 | 225 | 6.4 | 22.5 | 0.00 | 0.00 | 0.00 | 15 | 1013.9 |